Location: Castelnau
(43.6639°N, 0.8431°W)
Time: 16:01:20
(UTC+00:00)

Thor Agena Rocket - Pass Details

Date: 13 January 2026
Orbit: 755 x 802 km, 99.1° (Epoch: 11 February)

Event Time Altitude Azimuth Distance (km) Brightness Sun altitude
Rises 06:46:07 0° 12° (NNE) 3,237 6.6 -8.8°
Reaches altitude 10° 06:48:25 10° 10° (N) 2,312 5.9 -8.4°
Maximum altitude 06:53:29 72° 287° (WNW) 815 3.5 -7.6°
Drops below altitude 10° 06:58:34 10° 204° (SSW) 2,325 6.0 -6.7°
Sets 07:00:54 0° 203° (SSW) 3,256 6.8 -6.3°
